Flag for Switzerland Weather past 2 weeks in Martigny, Valais, Switzerland

Now
69 °F

Mild.


Feels Like: 69 °F
Forecast: 43 / 76 °F
Wind: 20 mph from West

Location: Sion

Current Time: Sep 22, 2014 at 4:42:52 PM

Latest Report: Sep 22, 2014 at 4:00 PM


Visibility: N/A

Pressure: 29.93 "Hg

Humidity: 47%

Dew point: 48 °F

Location of MartignyLocation

Historic Weather in Martigny — Graph

°F

Martigny temperature yesterday

Maximum temperature yesterday: 68 °F (at 2:00 PM)
Minimum temperature yesterday: 58 °F (at 10:00 PM)
Average temperature yesterday: 62 °F

Past Weeks' High & Low Weather Summary

 TemperatureHumidityPressure
High82 °F (Sep 8, 5:00 PM)98% (Sep 10, 12:00 AM)30.13 "Hg (Sep 10, 12:00 AM)
Low49 °F (Sep 13, 7:00 AM)40% (Sep 7, 4:00 PM)29.77 "Hg (Sep 11, 4:00 PM)
Average65 °F71%29.97 "Hg
* Reported Sep 7 3:00 PM — Sep 22 3:00 PM, Martigny, Weather by CustomWeather, © 2014

Note: Actual official high and low records may vary slightly from our data, if they occured in-between our weather recording intervals... More about our weather records

Advertising

Martigny weather history for previous 24 hours

 ConditionsComfort  
Time TempWeatherWind HumidityBarometerVisibility
3:00 PM
Sep 22
69 °FMild.21 mph47%29.92 "HgN/A
2:00 PM69 °FPassing clouds.18 mph50%29.94 "Hg19 mi
1:00 PM67 °FMild.10 mph54%29.98 "HgN/A
12:00 PM66 °FMild.8 mph63%30.01 "HgN/A
11:00 AM63 °FScattered clouds.3 mph70%30.04 "Hg19 mi
10:00 AM60 °FCool.3 mph80%30.06 "HgN/A
9:00 AM57 °FCool.1 mph89%30.07 "HgN/A
8:00 AM56 °FPartly sunny.1 mph95%30.06 "Hg19 mi
7:00 AM56 °FCool.2 mph94%30.06 "HgN/A
6:00 AM57 °FCool.1 mph90%30.05 "HgN/A
5:00 AM58 °FPassing clouds.2 mph94%30.04 "Hg9 mi
4:00 AM57 °FCool.3 mph92%30.05 "HgN/A
3:00 AM58 °FCool.1 mph95%30.07 "HgN/A
2:00 AM58 °FPassing clouds.2 mph95%30.07 "Hg9 mi
1:00 AM58 °FCool.2 mph96%30.07 "HgN/A
12:00 AM58 °FCool.1 mph97%30.09 "HgN/A
11:00 PM
Sep 21
58 °FRain. Overcast.2 mph95%30.09 "Hg6 mi
10:00 PM58 °FCool.2 mph96%30.10 "HgN/A
9:00 PM60 °FCool.3 mph93%30.09 "HgN/A
8:00 PM59 °FRain. Overcast.2 mph90%30.09 "Hg6 mi
7:00 PM63 °FMild.5 mph84%30.06 "HgN/A
6:00 PM64 °FMild.1 mph87%30.02 "HgN/A
5:00 PM64 °FLight rain. Overcast.3 mph82%30.03 "Hg12 mi
4:00 PM63 °FMild.3 mph88%30.04 "HgN/A
Weather by CustomWeather, © 2014

See weather overviewHow to use our weather pages